User: anonymous   Login
Location: Unspecified
(0.0000°N, 0.0000°E)
Time: 08:34:49
(UTC+00:00)
Language:

Himawari 4 - Orbit

View from above orbital plane
View from above orbital plane
View from above satellite
View from above satellite

Ground track
Ground track

The orbit data is extracted from the following two-line orbital elements,

1 20217U 89070A   17286.87505236 -.00000151 +00000-0 +00000-0 0  9994
2 20217 015.7804 012.6433 0042070 066.6496 276.5887 00.97412228101671
Epoch (UTC): 13 October 2017 21:00:04
Eccentricity: 0.0042070
inclination: 15.7804°
perigee height: 36426 km
apogee height: 36788 km
right ascension of ascending node: 12.6433°
argument of perigee: 66.6496°
revolutions per day: 0.97412228
mean anomaly at epoch: 276.5887°
orbit number at epoch: 10167

The dashed part of the orbit path shows where the satellite is in the earth's shadow,  

DLR